カタログに戻る

DELTA 1 DEB

運用中PO
NORAD 21504·DEBRIS·🇺🇸 United States

打ち上げ Jun 12, 1975 から Vandenberg Space Force Base

Loading…

次のパス (今後24時間)

TLE

最新Source: Space-Track

元期: Sep 14, 2026, 05:20 UTC

1 21504U 75052FZ  26257.22224506  .00000102  00000-0  53351-3 0  9999
2 21504  99.8267 171.0316 0547322 342.6191 171.9725 12.48694548606121

AllMySatでDELTA 1 DEBをリアルタイム追跡

Download on the App Store